sat.trackr.live / text

‹ back to catalog

KUIPER-00265

NORAD 67159 · 2025-301AC

PAYLOAD ACTIVE UNKNOWN

§ Identity

Operator
Country
US
Launch date
2025-12-16
Launch site
AFETR
Launch vehicle
Mass (kg)
RCS (m²)

External: N2YO · Heavens-Above · Gunter

§ Orbital elements

Epoch: 2026-05-25T04:22:49.772064Z

Period
97.30 min
Inclination
51.9007°
Eccentricity
0.0000696
Mean motion
14.79931198 rev/d
Perigee alt
629.1 km
Apogee alt
630.0 km
Semi-major
7,007.7 km
B*
8.2730e-5
RAAN
107.3784°
Arg perigee
71.0739°
Mean anomaly
289.0299°
Rev number
2,481

§ Raw data

KUIPER-002651 67159U 25301AC  26145.18252051  .00000410  00000+0  82730-4 0  99992 67159  51.9007 107.3784 0000696  71.0739 289.0299 14.79931198 24816

JSON: /api/v1/satellites/67159 · /tle

For live sub-satellite position, see the globe view (requires WebGL).

§ Visibility from observer

Set your observer location to see the next 7 days of passes ≥ 10°. The values pass through the URL so the page stays shareable.

No JS? Fill the form by hand. The geolocation button needs JavaScript.